sat.trackr.live / text

‹ back to catalog

ASTRA 3B

NORAD 36581 · 2010-021A

PAYLOAD ACTIVE UNKNOWN

§ Identity

Operator
Country
SES
Launch date
2010-05-21
Launch site
FRGUI
Launch vehicle
Mass (kg)
RCS (m²)
8.17

Purposes: comms

External: N2YO · Heavens-Above · Gunter

§ Orbital elements

Epoch: 2026-09-19T23:55:33.805056Z

Period
1,436.05 min
Inclination
1.7074°
Eccentricity
0.0003451
Mean motion
1.00274886 rev/d
Perigee alt
35,771.2 km
Apogee alt
35,800.3 km
Semi-major
42,163.9 km
B*
0.0000e+0
RAAN
82.2378°
Arg perigee
74.7610°
Mean anomaly
224.3224°
Rev number
5,981

§ Raw data

ASTRA 3B1 36581U 10021A   26262.99691904  .00000134  00000+0  00000+0 0  99982 36581   1.7074  82.2378 0003451  74.7610 224.3224  1.00274886 59810

JSON: /api/v1/satellites/36581 · /tle

For live sub-satellite position, see the globe view (requires WebGL).

§ Visibility from observer

Set your observer location to see the next 7 days of passes ≥ 10°. The values pass through the URL so the page stays shareable.

No JS? Fill the form by hand. The geolocation button needs JavaScript.